Simultaneous Nadir Overpasses (SNOs) Predictions

Prediction of SNOs between NOAA-19 and NPP Satellite Orbit:

Table of predicted SNOs for the next 14.0 days since TLE Epoch: 11/16/2012
Index Date (NOAA-19) Time (NOAA-19) NOAA-19 Lat,Lon Date (NPP) Time (NPP) NPP Lat,Lon Distance(km) Time Diff (sec)
1 11/27/2012 17:52:21 -80.79, 42.14 11/27/2012 17:53:24 -80.79, 41.96 3.28 63
2 11/27/2012 18:43:24 80.81,-151.21 11/27/2012 18:44:10 80.81,-151.07 2.51 46
3 11/27/2012 19:34:24 -80.75, 17.30 11/27/2012 19:34:52 -80.75, 17.25 0.93 28
4 11/27/2012 20:25:24 80.73,-174.99 11/27/2012 20:25:36 80.73,-175.08 1.70 12
5 11/27/2012 21:16:27 -80.72, -7.54 11/27/2012 21:16:20 -80.72, -7.47 1.44 7
6 11/27/2012 22:07:27 80.70, 160.17 11/27/2012 22:07:04 80.69, 160.20 0.61 23
7 11/27/2012 22:58:28
